Fulton, NY

11:28 PM EDT on October 22, 2019 (GMT -0400)
Oswego County

Weather History for KFZY - May, 2019

Change the Weather History Date:

Thursday, May 2, 2019

  Actual Average (KSYR) Record (KSYR)
Temperature  
Mean Temperature 49 °F -  
Max Temperature 55 °F 63 °F 88 °F (2018)
Min Temperature 43 °F 42 °F 26 °F (1903)
Degree Days  
Heating Degree Days 16    
Moisture  
Dew Point 43 °F    
Average Humidity 81    
Maximum Humidity 90    
Minimum Humidity 68    
Precipitation  
Precipitation 0.00 in - - ()
Sea Level Pressure  
Sea Level Pressure 30.14 in    
Wind  
Wind Speed 4 mph (NW)    
Max Wind Speed 8 mph    
Max Gust Speed -    
Visibility 10 miles    
Events Rain    
Averages and records for this station are not official NWS values.
T = Trace of Precipitation, MM = Missing Value Source: NWS Daily Summary

Daily Weather History Graph

Daily Weather History Graph

Search for Another Location

Airport or City:

Astronomy

May. 02, 2019 Rise Set
Actual Time 5:57 AM EDT 8:08 PM EDT
Civil Twilight 5:26 AM EDT 8:39 PM EDT
Nautical Twilight 4:47 AM EDT 9:18 PM EDT
Astronomical Twilight 4:05 AM EDT 10:01 PM EDT
Moon 5:16 AM EDT (5/2) 5:47 PM EDT (5/2)
Length of Visible Light 15h 13m
Length of Day
14h 10m
Waning Crescent, 5% of the Moon is Illuminated
May 2
Waning Crescent
May 4
New
May 11
First Quarter
May 18
Full
May 26
Last Quarter

Hourly Weather History & Observations

Time (EDT) Temp. Windchill Dew Point Humidity Pressure Visibility Wind Dir Wind Speed Gust Speed Precip Events Conditions
12:54 AM 54.0 °F - 50.0 °F 86% 30.05 in 10.0 mi Calm Calm - 0.00 in   Overcast
1:54 AM 54.0 °F - 51.1 °F 90% 30.04 in 10.0 mi Calm Calm - 0.00 in   Overcast
2:54 AM 54.0 °F - 51.1 °F 90% 30.04 in 10.0 mi Calm Calm - N/A   Overcast
3:46 AM 55.0 °F - 51.1 °F 86% 30.04 in 10.0 mi NW 4.6 mph - N/A   Overcast
3:54 AM 55.0 °F - 51.1 °F 86% 30.04 in 10.0 mi WNW 5.8 mph - N/A   Overcast
4:54 AM 48.0 °F - 45.0 °F 89% 30.05 in 10.0 mi NW 6.9 mph - 0.00 in Rain Light Rain
5:54 AM 45.0 °F 41.8 °F 42.1 °F 90% 30.08 in 10.0 mi NW 5.8 mph - 0.00 in   Overcast
6:54 AM 43.0 °F 39.5 °F 39.9 °F 89% 30.11 in 10.0 mi NNW 5.8 mph - N/A   Overcast
7:54 AM 43.0 °F 40.3 °F 39.9 °F 89% 30.13 in 10.0 mi NW 4.6 mph - N/A   Overcast
8:54 AM 44.1 °F 40.8 °F 41.0 °F 89% 30.15 in 10.0 mi WNW 5.8 mph - N/A   Overcast
9:54 AM 43.0 °F 38.2 °F 39.9 °F 89% 30.16 in 10.0 mi WNW 8.1 mph - N/A   Overcast
10:54 AM 45.0 °F 41.2 °F 41.0 °F 86% 30.17 in 10.0 mi NW 6.9 mph - N/A   Overcast
11:29 AM 46.9 °F - 42.1 °F 83% 30.16 in 10.0 mi NW 6.9 mph - N/A   Overcast
11:54 AM 46.9 °F - 41.0 °F 80% 30.17 in 10.0 mi Variable 5.8 mph - N/A   Overcast
12:25 PM 48.9 °F - 42.1 °F 77% 30.16 in 10.0 mi NW 8.1 mph - N/A   Overcast
12:54 PM 50.0 °F - 42.1 °F 74% 30.16 in 10.0 mi NNW 8.1 mph - N/A   Overcast
1:54 PM 50.0 °F - 41.0 °F 71% 30.18 in 10.0 mi NW 8.1 mph - N/A   Overcast
2:54 PM 51.1 °F - 42.1 °F 71% 30.18 in 10.0 mi NW 4.6 mph - N/A   Overcast
3:54 PM 51.1 °F - 41.0 °F 68% 30.19 in 10.0 mi NW 8.1 mph - N/A   Overcast
4:54 PM 51.1 °F - 42.1 °F 71% 30.17 in 10.0 mi NNW 8.1 mph - N/A   Overcast
5:54 PM 50.0 °F - 41.0 °F 71% 30.18 in 10.0 mi North 5.8 mph - N/A   Overcast
6:54 PM 48.9 °F - 41.0 °F 74% 30.18 in 10.0 mi NNW 3.5 mph - N/A   Overcast
7:54 PM 48.0 °F - 41.0 °F 77% 30.17 in 10.0 mi North 3.5 mph - N/A   Overcast
8:54 PM 48.0 °F - 41.0 °F 77% 30.19 in 10.0 mi Calm Calm - N/A   Overcast
9:54 PM 46.0 °F 43.9 °F 39.9 °F 79% 30.19 in 10.0 mi North 4.6 mph - N/A   Overcast
10:54 PM 45.0 °F - 39.0 °F 80% 30.17 in 10.0 mi Calm Calm - N/A   Overcast
11:07 PM 45.0 °F - 39.0 °F 80% 30.16 in 10.0 mi Calm Calm - N/A   Overcast
11:54 PM 45.0 °F - 39.9 °F 82% 30.15 in 10.0 mi Calm Calm - N/A   Overcast